Location: São Paulo
(23.5507°S, 46.6334°W)
Time: 00:02:36
(UTC-03:00)

Tiangong - Visible Passes

Search period start: 21 January 2026 00:00
Search period end: 31 January 2026 00:00
Orbit: 378 x 393 km, 41.5° (Epoch: 20 January)

Date Brightness Start Highest point End Pass type
(mag) Time Alt. Az. Time Alt. Az. Time Alt. Az.
22 Jan 0.8 20:53:27 10° S 20:54:20 12° S 20:54:20 12° S visible
23 Jan 1.5 21:29:30 10° SW 21:29:38 11° SW 21:29:38 11° SW visible
24 Jan -0.3 20:30:15 10° SSW 20:32:43 23° SSE 20:32:43 23° SSE visible
25 Jan 0.4 19:31:21 10° S 19:33:03 14° SSE 19:34:45 10° ESE visible
25 Jan 0.7 21:06:57 10° WSW 21:08:01 19° WSW 21:08:01 19° WSW visible
26 Jan -1.7 20:07:16 10° SW 20:10:23 50° SE 20:11:07 40° E visible
27 Jan 0.0 20:44:37 10° W 20:46:28 22° WNW 20:46:28 22° WNW visible
28 Jan -1.9 19:44:23 10° WSW 19:47:32 62° NW 19:49:37 19° NE visible
29 Jan 0.7 20:23:17 10° WNW 20:24:11 11° NW 20:25:01 10° NNW visible
30 Jan -0.2 19:21:42 10° W 19:24:22 25° NW 19:27:01 10° NNE visible
